| time (UTC) | temp F | wind direction | speed MPH | gust MPH | rain 1hr in | rain 24hr in | rain mn in | humidity % | barometer mb |
| 20260507151042 | 53 | 0 | 0.0 | 2.0 | 0.00 | 0.00 | 0.00 | 77 | 1021.3 |
| 20260507150538 | 52 | 0 | 0.0 | 3.0 | 0.00 | 0.00 | 0.00 | 77 | 1021.2 |
| 20260507150053 | 52 | 59 | 1.0 | 3.0 | 0.00 | 0.00 | 0.00 | 76 | 1021.2 |
| 20260507145540 | 52 | 0 | 0.0 | 3.0 | 0.00 | 0.00 | 0.00 | 78 | 1021.2 |
| 20260507145037 | 52 | 0 | 1.0 | 3.0 | 0.00 | 0.00 | 0.00 | 77 | 1021.3 |
| 20260507144549 | 52 | 59 | 0.0 | 3.0 | 0.00 | 0.00 | 0.00 | 77 | 1021.2 |
| 20260507144040 | 52 | 0 | 0.0 | 0.0 | 0.00 | 0.00 | 0.00 | 77 | 1021.2 |
| 20260507143540 | 52 | 0 | 0.0 | 0.0 | 0.00 | 0.00 | 0.00 | 79 | 1021.2 |
| 20260507143056 | 51 | 0 | 0.0 | 0.0 | 0.00 | 0.00 | 0.00 | 78 | 1021.1 |
| 20260507142540 | 51 | 0 | 0.0 | 0.0 | 0.00 | 0.00 | 0.00 | 78 | 1021.1 |
| 20260507142040 | 51 | 0 | 0.0 | 0.0 | 0.00 | 0.00 | 0.00 | 79 | 1021.1 |
| 20260507141545 | 51 | 0 | 0.0 | 0.0 | 0.00 | 0.00 | 0.00 | 78 | 1021.0 |
| 20260507141040 | 51 | 0 | 0.0 | 0.0 | 0.00 | 0.00 | 0.00 | 79 | 1021.1 |
| 20260507140540 | 51 | 0 | 0.0 | 0.0 | 0.00 | 0.00 | 0.00 | 79 | 1021.0 |
| 20260507140053 | 51 | 0 | 0.0 | 0.0 | 0.00 | 0.00 | 0.00 | 79 | 1021.1 |
| 20260507135540 | 51 | 0 | 0.0 | 0.0 | 0.00 | 0.00 | 0.00 | 79 | 1021.0 |
| 20260507135038 | 51 | 0 | 0.0 | 0.0 | 0.00 | 0.00 | 0.00 | 79 | 1021.1 |
| 20260507134550 | 51 | 0 | 0.0 | 0.0 | 0.00 | 0.00 | 0.00 | 79 | 1020.9 |
| 20260507134039 | 51 | 0 | 0.0 | 0.0 | 0.00 | 0.00 | 0.00 | 79 | 1020.9 |
| 20260507133540 | 51 | 0 | 0.0 | 0.0 | 0.00 | 0.00 | 0.00 | 79 | 1020.9 |
| 20260507133052 | 51 | 0 | 0.0 | 0.0 | 0.00 | 0.00 | 0.00 | 79 | 1020.9 |
| 20260507132541 | 51 | 0 | 0.0 | 0.0 | 0.00 | 0.00 | 0.00 | 79 | 1020.9 |
| 20260507132037 | 51 | 0 | 0.0 | 0.0 | 0.00 | 0.00 | 0.00 | 79 | 1020.9 |
| 20260507131548 | 51 | 0 | 0.0 | 0.0 | 0.00 | 0.00 | 0.00 | 79 | 1020.9 |
| 20260507131039 | 51 | 0 | 0.0 | 0.0 | 0.00 | 0.00 | 0.00 | 79 | 1020.9 |
| 20260507130543 | 51 | 0 | 0.0 | 0.0 | 0.00 | 0.00 | 0.00 | 79 | 1020.9 |
| 20260507130054 | 51 | 0 | 0.0 | 0.0 | 0.00 | 0.00 | 0.00 | 79 | 1020.9 |
| 20260507125541 | 51 | 0 | 0.0 | 0.0 | 0.00 | 0.00 | 0.00 | 80 | 1020.9 |
| 20260507125038 | 51 | 0 | 0.0 | 0.0 | 0.00 | 0.00 | 0.00 | 80 | 1020.9 |
| 20260507124559 | 51 | 0 | 0.0 | 0.0 | 0.00 | 0.00 | 0.00 | 80 | 1020.9 |
| 20260507124041 | 51 | 0 | 0.0 | 0.0 | 0.00 | 0.00 | 0.00 | 80 | 1021.0 |
| 20260507123538 | 51 | 0 | 0.0 | 0.0 | 0.00 | 0.00 | 0.00 | 80 | 1020.9 |
| 20260507123051 | 52 | 0 | 0.0 | 0.0 | 0.00 | 0.00 | 0.00 | 80 | 1021.0 |
| 20260507122540 | 52 | 0 | 0.0 | 0.0 | 0.00 | 0.00 | 0.00 | 80 | 1020.9 |
| 20260507122040 | 52 | 0 | 0.0 | 0.0 | 0.00 | 0.00 | 0.00 | 80 | 1020.9 |
| 20260507121551 | 52 | 0 | 0.0 | 0.0 | 0.00 | 0.00 | 0.00 | 80 | 1020.9 |
| 20260507121039 | 52 | 0 | 0.0 | 0.0 | 0.00 | 0.00 | 0.00 | 79 | 1021.0 |
| 20260507120542 | 52 | 0 | 0.0 | 0.0 | 0.00 | 0.00 | 0.00 | 79 | 1021.0 |
| 20260507120053 | 52 | 0 | 0.0 | 0.0 | 0.00 | 0.00 | 0.00 | 79 | 1021.1 |
| 20260507115541 | 52 | 0 | 0.0 | 0.0 | 0.00 | 0.00 | 0.00 | 80 | 1021.1 |
| 20260507115044 | 52 | 0 | 0.0 | 0.0 | 0.00 | 0.00 | 0.00 | 80 | 1021.1 |
| 20260507114605 | 52 | 0 | 0.0 | 0.0 | 0.00 | 0.00 | 0.00 | 79 | 1021.1 |
| 20260507114038 | 52 | 0 | 0.0 | 0.0 | 0.00 | 0.00 | 0.00 | 80 | 1021.1 |
| 20260507113539 | 52 | 0 | 0.0 | 0.0 | 0.00 | 0.00 | 0.00 | 80 | 1021.2 |
| 20260507113117 | 52 | 0 | 0.0 | 0.0 | 0.00 | 0.00 | 0.00 | 80 | 1021.1 |
| 20260507112538 | 52 | 0 | 0.0 | 0.0 | 0.00 | 0.00 | 0.00 | 80 | 1021.2 |
| 20260507112045 | 52 | 0 | 0.0 | 0.0 | 0.00 | 0.00 | 0.00 | 80 | 1021.3 |
| 20260507111550 | 52 | 0 | 0.0 | 0.0 | 0.00 | 0.00 | 0.00 | 80 | 1021.3 |
| 20260507111038 | 52 | 0 | 0.0 | 0.0 | 0.00 | 0.00 | 0.00 | 80 | 1021.2 |
| 20260507110541 | 52 | 0 | 0.0 | 0.0 | 0.00 | 0.00 | 0.00 | 80 | 1021.3 |
| 20260507110043 | 52 | 0 | 0.0 | 0.0 | 0.00 | 0.00 | 0.00 | 79 | 1021.3 |
| 20260507105538 | 52 | 0 | 0.0 | 0.0 | 0.00 | 0.00 | 0.00 | 80 | 1021.4 |
| 20260507105041 | 53 | 0 | 0.0 | 0.0 | 0.00 | 0.00 | 0.00 | 80 | 1021.3 |
| 20260507104552 | 53 | 0 | 0.0 | 0.0 | 0.00 | 0.00 | 0.00 | 80 | 1021.3 |
| 20260507104037 | 53 | 0 | 0.0 | 0.0 | 0.00 | 0.00 | 0.00 | 80 | 1021.4 |
| 20260507103538 | 53 | 0 | 0.0 | 0.0 | 0.00 | 0.00 | 0.00 | 79 | 1021.4 |
| 20260507103054 | 53 | 0 | 0.0 | 0.0 | 0.00 | 0.00 | 0.00 | 80 | 1021.5 |
| 20260507102543 | 53 | 0 | 0.0 | 0.0 | 0.00 | 0.00 | 0.00 | 80 | 1021.4 |
| 20260507102042 | 53 | 0 | 0.0 | 0.0 | 0.00 | 0.00 | 0.00 | 79 | 1021.4 |
| 20260507101550 | 53 | 0 | 0.0 | 0.0 | 0.00 | 0.00 | 0.00 | 79 | 1021.4 |
| 20260507101041 | 53 | 0 | 0.0 | 0.0 | 0.00 | 0.00 | 0.00 | 79 | 1021.5 |
| 20260507100541 | 53 | 0 | 0.0 | 0.0 | 0.00 | 0.00 | 0.00 | 80 | 1021.5 |
| 20260507100047 | 53 | 0 | 0.0 | 1.0 | 0.00 | 0.00 | 0.00 | 80 | 1021.5 |
| 20260507095539 | 53 | 0 | 0.0 | 1.0 | 0.00 | 0.00 | 0.00 | 79 | 1021.5 |
| 20260507095038 | 53 | 150 | 0.0 | 0.0 | 0.00 | 0.00 | 0.00 | 80 | 1021.6 |
| 20260507094550 | 53 | 0 | 0.0 | 0.0 | 0.00 | 0.00 | 0.00 | 80 | 1021.7 |
| 20260507094045 | 53 | 0 | 0.0 | 0.0 | 0.00 | 0.00 | 0.00 | 80 | 1021.6 |
| 20260507093541 | 53 | 0 | 0.0 | 1.0 | 0.00 | 0.00 | 0.00 | 80 | 1021.8 |
| 20260507093051 | 53 | 0 | 0.0 | 1.0 | 0.00 | 0.00 | 0.00 | 80 | 1021.8 |
| 20260507092538 | 53 | 0 | 0.0 | 1.0 | 0.00 | 0.00 | 0.00 | 80 | 1021.8 |
| 20260507092037 | 53 | 0 | 0.0 | 0.0 | 0.00 | 0.00 | 0.00 | 80 | 1021.9 |
| 20260507091601 | 53 | 0 | 0.0 | 0.0 | 0.00 | 0.00 | 0.00 | 80 | 1021.9 |
| 20260507091042 | 53 | 0 | 0.0 | 0.0 | 0.00 | 0.00 | 0.00 | 80 | 1021.9 |
| 20260507090542 | 53 | 0 | 0.0 | 0.0 | 0.00 | 0.00 | 0.00 | 80 | 1021.9 |
| 20260507090051 | 53 | 0 | 0.0 | 0.0 | 0.00 | 0.00 | 0.00 | 80 | 1021.9 |
| 20260507085541 | 53 | 0 | 0.0 | 0.0 | 0.00 | 0.00 | 0.00 | 80 | 1022.0 |
| 20260507085041 | 53 | 0 | 0.0 | 2.0 | 0.00 | 0.00 | 0.00 | 80 | 1021.9 |
| 20260507084557 | 53 | 0 | 0.0 | 2.0 | 0.00 | 0.00 | 0.00 | 81 | 1022.0 |
| 20260507084041 | 54 | 153 | 0.0 | 2.0 | 0.00 | 0.00 | 0.00 | 81 | 1022.0 |
| 20260507083538 | 54 | 0 | 0.0 | 1.0 | 0.00 | 0.00 | 0.00 | 80 | 1022.0 |
| 20260507083050 | 54 | 0 | 0.0 | 1.0 | 0.00 | 0.00 | 0.00 | 80 | 1021.9 |
| 20260507082542 | 54 | 0 | 0.0 | 0.0 | 0.00 | 0.00 | 0.00 | 80 | 1022.0 |
| 20260507082038 | 54 | 0 | 0.0 | 2.0 | 0.00 | 0.00 | 0.00 | 80 | 1021.9 |
| 20260507081559 | 54 | 0 | 0.0 | 2.0 | 0.00 | 0.00 | 0.00 | 80 | 1022.0 |
| 20260507081043 | 54 | 113 | 0.0 | 2.0 | 0.00 | 0.00 | 0.00 | 79 | 1021.9 |
| 20260507080537 | 54 | 0 | 0.0 | 0.0 | 0.00 | 0.00 | 0.00 | 80 | 1022.0 |
| 20260507080059 | 54 | 0 | 0.0 | 0.0 | 0.00 | 0.00 | 0.00 | 80 | 1022.0 |
| 20260507075538 | 54 | 0 | 0.0 | 0.0 | 0.00 | 0.00 | 0.00 | 80 | 1022.0 |
| 20260507075042 | 54 | 0 | 0.0 | 0.0 | 0.00 | 0.00 | 0.00 | 80 | 1021.9 |
| 20260507074557 | 54 | 0 | 0.0 | 0.0 | 0.00 | 0.00 | 0.00 | 80 | 1021.9 |
| 20260507074047 | 54 | 0 | 0.0 | 0.0 | 0.00 | 0.00 | 0.00 | 80 | 1022.0 |
| 20260507073543 | 54 | 0 | 0.0 | 0.0 | 0.00 | 0.00 | 0.00 | 80 | 1021.8 |
| 20260507073102 | 54 | 0 | 0.0 | 0.0 | 0.00 | 0.00 | 0.00 | 80 | 1021.8 |
| 20260507072538 | 54 | 0 | 0.0 | 0.0 | 0.00 | 0.00 | 0.00 | 80 | 1021.8 |
| 20260507072038 | 54 | 0 | 0.0 | 0.0 | 0.00 | 0.00 | 0.00 | 80 | 1021.7 |
| 20260507071549 | 54 | 0 | 0.0 | 0.0 | 0.00 | 0.00 | 0.00 | 80 | 1021.7 |
| 20260507071038 | 54 | 0 | 0.0 | 1.0 | 0.00 | 0.00 | 0.00 | 80 | 1021.7 |
| 20260507070624 | 54 | 0 | 0.0 | 1.0 | 0.00 | 0.00 | 0.00 | 80 | 1021.7 |
| 20260507070051 | 54 | 0 | 0.0 | 1.0 | 0.00 | 0.00 | 0.00 | 79 | 1021.8 |
| 20260507065540 | 54 | 0 | 0.0 | 2.0 | 0.00 | 0.00 | 0.00 | 80 | 1021.8 |
| 20260507065040 | 54 | 0 | 0.0 | 2.0 | 0.00 | 0.00 | 0.00 | 80 | 1021.9 |
| 20260507064551 | 54 | 0 | 0.0 | 2.0 | 0.00 | 0.00 | 0.00 | 79 | 1021.8 |
| 20260507064045 | 55 | 112 | 0.0 | 2.0 | 0.00 | 0.00 | 0.00 | 79 | 1021.8 |
| 20260507063542 | 55 | 112 | 0.0 | 2.0 | 0.00 | 0.00 | 0.00 | 79 | 1021.9 |
| 20260507063053 | 55 | 112 | 1.0 | 2.0 | 0.00 | 0.00 | 0.00 | 79 | 1021.9 |
| 20260507062541 | 55 | 0 | 0.0 | 2.0 | 0.00 | 0.00 | 0.00 | 79 | 1022.0 |
| 20260507062038 | 55 | 0 | 0.0 | 2.0 | 0.00 | 0.00 | 0.00 | 79 | 1022.0 |
| 20260507061551 | 55 | 112 | 0.0 | 2.0 | 0.00 | 0.00 | 0.00 | 79 | 1022.0 |
| 20260507061040 | 55 | 113 | 0.0 | 0.0 | 0.00 | 0.00 | 0.00 | 79 | 1021.9 |
| 20260507060542 | 55 | 0 | 0.0 | 1.0 | 0.00 | 0.00 | 0.00 | 79 | 1022.0 |
| 20260507060101 | 55 | 0 | 0.0 | 3.0 | 0.00 | 0.00 | 0.00 | 79 | 1022.0 |
| 20260507055538 | 55 | 0 | 1.0 | 3.0 | 0.00 | 0.00 | 0.00 | 78 | 1022.0 |
| 20260507055041 | 56 | 93 | 0.0 | 2.0 | 0.00 | 0.00 | 0.00 | 78 | 1021.9 |
| 20260507054543 | 56 | 0 | 0.0 | 2.0 | 0.00 | 0.00 | 0.00 | 79 | 1021.9 |
| 20260507054040 | 56 | 93 | 0.0 | 3.0 | 0.00 | 0.00 | 0.00 | 79 | 1021.9 |
| 20260507053542 | 56 | 0 | 0.0 | 5.0 | 0.00 | 0.00 | 0.00 | 78 | 1021.9 |
| 20260507053047 | 56 | 93 | 2.0 | 5.0 | 0.00 | 0.00 | 0.00 | 78 | 1021.9 |
| 20260507052544 | 56 | 0 | 1.0 | 3.0 | 0.00 | 0.00 | 0.00 | 78 | 1021.9 |
| 20260507052041 | 56 | 144 | 0.0 | 2.0 | 0.00 | 0.00 | 0.00 | 78 | 1021.9 |
| 20260507051549 | 56 | 0 | 0.0 | 5.0 | 0.00 | 0.00 | 0.00 | 78 | 1021.8 |
| 20260507051041 | 56 | 173 | 0.0 | 5.0 | 0.00 | 0.00 | 0.00 | 78 | 1021.9 |
| 20260507050538 | 56 | 173 | 0.0 | 4.0 | 0.00 | 0.00 | 0.00 | 78 | 1021.9 |
| 20260507050047 | 57 | 63 | 1.0 | 4.0 | 0.00 | 0.00 | 0.00 | 78 | 1021.9 |
| 20260507045542 | 57 | 123 | 1.0 | 3.0 | 0.00 | 0.00 | 0.00 | 77 | 1021.9 |
| 20260507045039 | 57 | 91 | 1.0 | 3.0 | 0.00 | 0.00 | 0.00 | 77 | 1021.9 |
| 20260507044559 | 57 | 0 | 1.0 | 3.0 | 0.00 | 0.00 | 0.00 | 77 | 1021.9 |
| 20260507044039 | 57 | 91 | 1.0 | 3.0 | 0.00 | 0.00 | 0.00 | 77 | 1021.9 |
| 20260507043541 | 57 | 91 | 0.0 | 3.0 | 0.00 | 0.00 | 0.00 | 78 | 1021.8 |
| 20260507043102 | 58 | 91 | 1.0 | 3.0 | 0.00 | 0.00 | 0.00 | 77 | 1021.8 |
| 20260507042538 | 58 | 22 | 1.0 | 3.0 | 0.00 | 0.00 | 0.00 | 77 | 1021.7 |
| 20260507042041 | 58 | 18 | 0.0 | 3.0 | 0.00 | 0.00 | 0.00 | 77 | 1021.6 |
| 20260507041556 | 58 | 329 | 0.0 | 2.0 | 0.00 | 0.00 | 0.00 | 78 | 1021.6 |
| 20260507041038 | 58 | 0 | 0.0 | 2.0 | 0.00 | 0.00 | 0.00 | 78 | 1021.5 |
| 20260507040541 | 58 | 0 | 0.0 | 2.0 | 0.00 | 0.00 | 0.00 | 78 | 1021.4 |
| 20260507040051 | 58 | 329 | 0.0 | 2.0 | 0.00 | 0.00 | 0.00 | 78 | 1021.4 |
| 20260507035537 | 58 | 0 | 0.0 | 3.0 | 0.00 | 0.00 | 0.00 | 78 | 1021.4 |
| 20260507035039 | 58 | 0 | 0.0 | 3.0 | 0.00 | 0.00 | 0.00 | 78 | 1021.3 |
| 20260507034547 | 59 | 39 | 0.0 | 3.0 | 0.00 | 0.00 | 0.00 | 78 | 1021.2 |
| 20260507034036 | 59 | 39 | 1.0 | 2.0 | 0.00 | 0.00 | 0.00 | 78 | 1021.2 |
| 20260507033539 | 59 | 39 | 0.0 | 1.0 | 0.00 | 0.00 | 0.00 | 77 | 1021.0 |
| 20260507033048 | 59 | 0 | 0.0 | 1.0 | 0.00 | 0.00 | 0.00 | 77 | 1021.0 |
| 20260507032539 | 60 | 0 | 0.0 | 1.0 | 0.00 | 0.00 | 0.00 | 76 | 1020.9 |
| 20260507032039 | 60 | 0 | 0.0 | 1.0 | 0.00 | 0.00 | 0.00 | 75 | 1020.8 |
| 20260507031548 | 60 | 0 | 0.0 | 1.0 | 0.00 | 0.00 | 0.00 | 75 | 1020.7 |
| 20260507031038 | 61 | 0 | 0.0 | 1.0 | 0.00 | 0.00 | 0.00 | 75 | 1020.6 |
| 20260507030539 | 61 | 0 | 0.0 | 1.0 | 0.00 | 0.00 | 0.00 | 75 | 1020.6 |
| 20260507030051 | 62 | 0 | 0.0 | 1.0 | 0.00 | 0.00 | 0.00 | 74 | 1020.5 |
| 20260507025538 | 62 | 0 | 0.0 | 1.0 | 0.00 | 0.00 | 0.00 | 74 | 1020.4 |
| 20260507025040 | 62 | 0 | 0.0 | 2.0 | 0.00 | 0.00 | 0.00 | 74 | 1020.4 |
| 20260507024555 | 62 | 0 | 0.0 | 2.0 | 0.00 | 0.00 | 0.00 | 73 | 1020.3 |
| 20260507024038 | 63 | 39 | 0.0 | 1.0 | 0.00 | 0.00 | 0.00 | 74 | 1020.3 |
| 20260507023537 | 63 | 39 | 0.0 | 1.0 | 0.00 | 0.00 | 0.00 | 73 | 1020.3 |
| 20260507023104 | 63 | 0 | 0.0 | 2.0 | 0.00 | 0.00 | 0.00 | 73 | 1020.2 |
| 20260507022538 | 64 | 0 | 0.0 | 2.0 | 0.00 | 0.00 | 0.00 | 72 | 1020.2 |
| 20260507022038 | 64 | 0 | 0.0 | 1.0 | 0.00 | 0.00 | 0.00 | 71 | 1020.2 |
| 20260507021554 | 65 | 39 | 0.0 | 2.0 | 0.00 | 0.00 | 0.00 | 70 | 1020.2 |
| 20260507021037 | 65 | 38 | 0.0 | 2.0 | 0.00 | 0.00 | 0.00 | 71 | 1020.2 |
| 20260507020538 | 65 | 0 | 0.0 | 2.0 | 0.00 | 0.00 | 0.00 | 71 | 1020.2 |
| 20260507020058 | 66 | 38 | 0.0 | 2.0 | 0.00 | 0.00 | 0.00 | 71 | 1020.3 |
| 20260507015538 | 66 | 0 | 0.0 | 3.0 | 0.00 | 0.00 | 0.00 | 71 | 1020.2 |
| 20260507015038 | 66 | 30 | 1.0 | 3.0 | 0.00 | 0.00 | 0.00 | 70 | 1020.3 |
| 20260507014549 | 66 | 0 | 1.0 | 3.0 | 0.00 | 0.00 | 0.00 | 69 | 1020.3 |
| 20260507014038 | 67 | 0 | 1.0 | 3.0 | 0.00 | 0.00 | 0.00 | 69 | 1020.4 |
| 20260507013538 | 67 | 144 | 0.0 | 2.0 | 0.00 | 0.00 | 0.00 | 71 | 1020.3 |
| 20260507013049 | 67 | 144 | 0.0 | 2.0 | 0.00 | 0.00 | 0.00 | 71 | 1020.2 |
| 20260507012542 | 68 | 144 | 1.0 | 2.0 | 0.00 | 0.00 | 0.00 | 71 | 1020.2 |
| 20260507012038 | 68 | 144 | 0.0 | 2.0 | 0.00 | 0.00 | 0.00 | 70 | 1020.2 |
| 20260507011550 | 68 | 146 | 1.0 | 2.0 | 0.00 | 0.00 | 0.00 | 70 | 1020.1 |
| 20260507011038 | 68 | 0 | 0.0 | 1.0 | 0.00 | 0.00 | 0.00 | 69 | 1020.1 |
| 20260507010538 | 68 | 0 | 0.0 | 1.0 | 0.00 | 0.00 | 0.00 | 67 | 1020.2 |
| 20260507010054 | 68 | 0 | 0.0 | 1.0 | 0.00 | 0.00 | 0.00 | 67 | 1020.2 |
| 20260507005537 | 69 | 0 | 0.0 | 2.0 | 0.00 | 0.00 | 0.00 | 66 | 1020.2 |
| 20260507005037 | 69 | 0 | 0.0 | 2.0 | 0.00 | 0.00 | 0.00 | 69 | 1020.2 |
| 20260507004548 | 69 | 0 | 0.0 | 2.0 | 0.00 | 0.00 | 0.00 | 68 | 1020.1 |
| 20260507004038 | 69 | 0 | 0.0 | 2.0 | 0.00 | 0.00 | 0.00 | 65 | 1020.2 |
| 20260507003538 | 69 | 0 | 0.0 | 3.0 | 0.00 | 0.00 | 0.00 | 68 | 1020.2 |
| 20260507003113 | 69 | 0 | 0.0 | 3.0 | 0.00 | 0.00 | 0.00 | 67 | 1020.2 |
| 20260507002540 | 69 | 0 | 0.0 | 3.0 | 0.00 | 0.00 | 0.00 | 65 | 1020.2 |
| 20260507002038 | 70 | 116 | 1.0 | 3.0 | 0.00 | 0.00 | 0.00 | 67 | 1020.2 |
| 20260507001612 | 69 | 146 | 0.0 | 2.0 | 0.00 | 0.00 | 0.00 | 68 | 1020.2 |
| 20260507001037 | 69 | 0 | 0.0 | 3.0 | 0.00 | 0.00 | 0.00 | 68 | 1020.2 |
| 20260507000543 | 68 | 147 | 1.0 | 4.0 | 0.00 | 0.00 | 0.00 | 67 | 1020.2 |
| 20260507000051 | 68 | 64 | 1.0 | 4.0 | 0.00 | 0.00 | 0.00 | 72 | 1020.2 |
| 20260506235540 | 67 | 0 | 0.0 | 4.0 | 0.00 | 0.00 | 0.00 | 69 | 1020.2 |
| 20260506235039 | 67 | 162 | 1.0 | 4.0 | 0.00 | 0.00 | 0.00 | 67 | 1020.3 |
| 20260506234554 | 67 | 0 | 0.0 | 2.0 | 0.00 | 0.00 | 0.00 | 68 | 1020.3 |
| 20260506234039 | 67 | 0 | 0.0 | 2.0 | 0.00 | 0.00 | 0.00 | 69 | 1020.3 |
| 20260506233539 | 67 | 330 | 0.0 | 3.0 | 0.00 | 0.00 | 0.00 | 69 | 1020.4 |
| 20260506233047 | 67 | 0 | 1.0 | 3.0 | 0.00 | 0.00 | 0.00 | 68 | 1020.4 |
| 20260506232539 | 67 | 65 | 1.0 | 4.0 | 0.00 | 0.00 | 0.00 | 67 | 1020.3 |
| 20260506232038 | 67 | 260 | 1.0 | 4.0 | 0.00 | 0.00 | 0.00 | 69 | 1020.3 |
| 20260506231604 | 67 | 173 | 1.0 | 4.0 | 0.00 | 0.00 | 0.00 | 68 | 1020.5 |
| 20260506231037 | 66 | 78 | 1.0 | 3.0 | 0.00 | 0.00 | 0.00 | 70 | 1020.6 |
| 20260506230540 | 66 | 0 | 0.0 | 5.0 | 0.00 | 0.00 | 0.00 | 71 | 1020.6 |
| 20260506230104 | 66 | 199 | 2.0 | 6.0 | 0.00 | 0.00 | 0.00 | 69 | 1020.6 |
| 20260506225539 | 66 | 164 | 1.0 | 6.0 | 0.00 | 0.00 | 0.00 | 71 | 1020.6 |
| 20260506225039 | 66 | 168 | 1.0 | 5.0 | 0.00 | 0.00 | 0.00 | 70 | 1020.7 |
| 20260506224549 | 65 | 182 | 1.0 | 6.0 | 0.00 | 0.00 | 0.00 | 74 | 1020.7 |
| 20260506224038 | 65 | 152 | 2.0 | 6.0 | 0.00 | 0.00 | 0.00 | 73 | 1020.8 |
| 20260506223544 | 64 | 175 | 2.0 | 6.0 | 0.00 | 0.00 | 0.00 | 72 | 1020.9 |
| 20260506223049 | 65 | 178 | 2.0 | 6.0 | 0.00 | 0.00 | 0.00 | 73 | 1020.9 |
| 20260506222538 | 65 | 128 | 1.0 | 5.0 | 0.00 | 0.00 | 0.00 | 72 | 1020.8 |
| 20260506222042 | 65 | 163 | 1.0 | 6.0 | 0.00 | 0.00 | 0.00 | 72 | 1020.8 |
| 20260506221606 | 66 | 152 | 0.0 | 6.0 | 0.00 | 0.00 | 0.00 | 71 | 1020.9 |
| 20260506221040 | 66 | 222 | 1.0 | 6.0 | 0.00 | 0.00 | 0.00 | 73 | 1020.8 |
| 20260506220538 | 65 | 143 | 2.0 | 7.0 | 0.00 | 0.00 | 0.00 | 73 | 1020.8 |
| 20260506220049 | 65 | 160 | 2.0 | 7.0 | 0.00 | 0.00 | 0.00 | 73 | 1020.8 |
| 20260506215542 | 65 | 152 | 1.0 | 6.0 | 0.00 | 0.00 | 0.00 | 74 | 1020.8 |
| 20260506215038 | 64 | 163 | 2.0 | 6.0 | 0.00 | 0.00 | 0.00 | 74 | 1020.9 |
| 20260506214551 | 64 | 177 | 0.0 | 8.0 | 0.00 | 0.00 | 0.00 | 73 | 1021.0 |
| 20260506214038 | 64 | 186 | 2.0 | 8.0 | 0.00 | 0.00 | 0.00 | 74 | 1021.0 |
| 20260506213540 | 64 | 184 | 0.0 | 4.0 | 0.00 | 0.00 | 0.00 | 77 | 1021.1 |
| 20260506213043 | 63 | 189 | 1.0 | 5.0 | 0.00 | 0.00 | 0.00 | 75 | 1021.1 |
| 20260506212538 | 63 | 192 | 0.0 | 5.0 | 0.00 | 0.00 | 0.00 | 75 | 1021.3 |
| 20260506212040 | 63 | 178 | 1.0 | 6.0 | 0.00 | 0.00 | 0.00 | 75 | 1021.3 |
| 20260506211542 | 63 | 0 | 2.0 | 6.0 | 0.00 | 0.00 | 0.00 | 75 | 1021.4 |
| 20260506211040 | 63 | 193 | 1.0 | 3.0 | 0.00 | 0.00 | 0.00 | 75 | 1021.3 |
| 20260506210540 | 63 | 174 | 1.0 | 8.0 | 0.00 | 0.00 | 0.00 | 75 | 1021.3 |
| 20260506210054 | 63 | 243 | 1.0 | 8.0 | 0.00 | 0.00 | 0.00 | 76 | 1021.3 |
| 20260506205541 | 63 | 219 | 2.0 | 8.0 | 0.00 | 0.00 | 0.00 | 76 | 1021.2 |
| 20260506205036 | 63 | 206 | 1.0 | 4.0 | 0.00 | 0.00 | 0.00 | 76 | 1021.3 |
| 20260506204550 | 62 | 188 | 0.0 | 7.0 | 0.00 | 0.00 | 0.00 | 78 | 1021.3 |
| 20260506204039 | 62 | 0 | 0.0 | 7.0 | 0.00 | 0.00 | 0.00 | 78 | 1021.2 |
| 20260506203538 | 62 | 161 | 2.0 | 6.0 | 0.00 | 0.00 | 0.00 | 77 | 1021.2 |
| 20260506203045 | 62 | 214 | 1.0 | 6.0 | 0.00 | 0.00 | 0.00 | 78 | 1021.4 |
| 20260506202538 | 62 | 169 | 2.0 | 6.0 | 0.00 | 0.00 | 0.00 | 79 | 1021.4 |
| 20260506202038 | 61 | 198 | 2.0 | 6.0 | 0.00 | 0.00 | 0.00 | 79 | 1021.4 |
| 20260506201544 | 61 | 271 | 1.0 | 4.0 | 0.00 | 0.00 | 0.00 | 79 | 1021.5 |
| 20260506201040 | 61 | 0 | 1.0 | 7.0 | 0.00 | 0.00 | 0.00 | 79 | 1021.6 |
| 20260506200539 | 61 | 180 | 3.0 | 7.0 | 0.00 | 0.00 | 0.00 | 80 | 1021.6 |
| 20260506200042 | 61 | 167 | 1.0 | 6.0 | 0.00 | 0.00 | 0.00 | 80 | 1021.6 |
| 20260506195538 | 60 | 175 | 1.0 | 6.0 | 0.00 | 0.00 | 0.00 | 79 | 1021.7 |
| 20260506195038 | 61 | 169 | 2.0 | 5.0 | 0.00 | 0.00 | 0.00 | 79 | 1021.7 |
| 20260506194550 | 61 | 178 | 2.0 | 5.0 | 0.00 | 0.00 | 0.00 | 78 | 1021.7 |
| 20260506194038 | 61 | 0 | 1.0 | 5.0 | 0.00 | 0.00 | 0.00 | 79 | 1021.7 |
| 20260506193543 | 61 | 169 | 2.0 | 5.0 | 0.00 | 0.00 | 0.00 | 79 | 1021.7 |
| 20260506193051 | 61 | 168 | 0.0 | 5.0 | 0.00 | 0.00 | 0.00 | 80 | 1021.7 |
| 20260506192538 | 60 | 146 | 1.0 | 6.0 | 0.00 | 0.00 | 0.00 | 80 | 1021.5 |
| 20260506192036 | 60 | 212 | 2.0 | 6.0 | 0.00 | 0.00 | 0.00 | 80 | 1021.5 |
| 20260506191546 | 60 | 288 | 1.0 | 5.0 | 0.00 | 0.00 | 0.00 | 80 | 1021.5 |
| 20260506191038 | 60 | 164 | 2.0 | 5.0 | 0.00 | 0.00 | 0.00 | 79 | 1021.5 |
| 20260506190538 | 60 | 184 | 0.0 | 5.0 | 0.00 | 0.00 | 0.00 | 81 | 1021.5 |
| 20260506190049 | 60 | 159 | 2.0 | 7.0 | 0.00 | 0.00 | 0.00 | 79 | 1021.4 |
| 20260506185542 | 59 | 180 | 3.0 | 7.0 | 0.00 | 0.00 | 0.00 | 81 | 1021.5 |
| 20260506185038 | 59 | 107 | 1.0 | 6.0 | 0.00 | 0.00 | 0.00 | 81 | 1021.4 |
| 20260506184551 | 59 | 159 | 2.0 | 6.0 | 0.00 | 0.00 | 0.00 | 81 | 1021.4 |
| 20260506184038 | 59 | 183 | 0.0 | 4.0 | 0.00 | 0.00 | 0.00 | 82 | 1021.5 |
| 20260506183540 | 59 | 183 | 2.0 | 4.0 | 0.00 | 0.00 | 0.00 | 81 | 1021.5 |
| 20260506183053 | 59 | 0 | 0.0 | 5.0 | 0.00 | 0.00 | 0.00 | 81 | 1021.4 |
| 20260506182537 | 59 | 0 | 0.0 | 5.0 | 0.00 | 0.00 | 0.00 | 82 | 1021.4 |
| 20260506182037 | 59 | 0 | 2.0 | 5.0 | 0.00 | 0.00 | 0.00 | 82 | 1021.5 |
| 20260506181559 | 58 | 171 | 1.0 | 5.0 | 0.00 | 0.00 | 0.00 | 83 | 1021.4 |
| 20260506181037 | 58 | 172 | 1.0 | 4.0 | 0.00 | 0.00 | 0.00 | 82 | 1021.4 |
| 20260506180543 | 58 | 169 | 0.0 | 5.0 | 0.00 | 0.00 | 0.00 | 82 | 1021.4 |
| 20260506180053 | 58 | 174 | 1.0 | 5.0 | 0.00 | 0.00 | 0.00 | 82 | 1021.4 |
| 20260506175538 | 58 | 189 | 0.0 | 5.0 | 0.00 | 0.00 | 0.00 | 83 | 1021.5 |
| 20260506175039 | 58 | 0 | 0.0 | 8.0 | 0.00 | 0.00 | 0.00 | 83 | 1021.4 |
| 20260506174553 | 58 | 241 | 1.0 | 8.0 | 0.00 | 0.00 | 0.00 | 84 | 1021.3 |
| 20260506174036 | 57 | 164 | 1.0 | 5.0 | 0.00 | 0.00 | 0.00 | 84 | 1021.2 |
| 20260506173538 | 57 | 191 | 1.0 | 5.0 | 0.00 | 0.00 | 0.00 | 84 | 1021.2 |
| 20260506173049 | 57 | 161 | 1.0 | 6.0 | 0.00 | 0.00 | 0.00 | 84 | 1021.3 |
| 20260506172538 | 57 | 173 | 2.0 | 6.0 | 0.00 | 0.00 | 0.00 | 84 | 1021.1 |
| 20260506172038 | 57 | 179 | 1.0 | 6.0 | 0.00 | 0.00 | 0.00 | 84 | 1021.2 |
| 20260506171550 | 57 | 179 | 2.0 | 6.0 | 0.00 | 0.00 | 0.00 | 84 | 1021.3 |
| 20260506171038 | 57 | 170 | 0.0 | 4.0 | 0.00 | 0.00 | 0.00 | 84 | 1021.3 |
| 20260506170538 | 57 | 169 | 1.0 | 5.0 | 0.00 | 0.00 | 0.00 | 84 | 1021.2 |
| 20260506170054 | 57 | 0 | 1.0 | 6.0 | 0.00 | 0.00 | 0.00 | 84 | 1021.1 |
| 20260506165538 | 57 | 0 | 2.0 | 6.0 | 0.00 | 0.00 | 0.00 | 84 | 1021.2 |
| 20260506165037 | 57 | 181 | 1.0 | 4.0 | 0.00 | 0.00 | 0.00 | 84 | 1021.2 |
| 20260506164601 | 57 | 175 | 1.0 | 4.0 | 0.00 | 0.00 | 0.00 | 84 | 1021.2 |
| 20260506164039 | 57 | 0 | 0.0 | 3.0 | 0.00 | 0.00 | 0.00 | 85 | 1021.1 |
| 20260506163537 | 57 | 0 | 0.0 | 3.0 | 0.00 | 0.00 | 0.00 | 85 | 1021.1 |
| 20260506163056 | 57 | 179 | 0.0 | 5.0 | 0.00 | 0.00 | 0.00 | 85 | 1020.9 |
| 20260506162541 | 57 | 180 | 2.0 | 5.0 | 0.00 | 0.00 | 0.00 | 85 | 1020.8 |
| 20260506162041 | 57 | 171 | 1.0 | 5.0 | 0.00 | 0.00 | 0.00 | 85 | 1020.9 |
| 20260506161546 | 57 | 222 | 0.0 | 5.0 | 0.00 | 0.00 | 0.00 | 85 | 1020.9 |
| 20260506161038 | 56 | 172 | 1.0 | 6.0 | 0.00 | 0.00 | 0.00 | 84 | 1020.8 |
| 20260506160540 | 56 | 284 | 0.0 | 6.0 | 0.00 | 0.00 | 0.00 | 85 | 1020.8 |
| 20260506160057 | 56 | 0 | 1.0 | 6.0 | 0.00 | 0.00 | 0.00 | 85 | 1020.4 |
| 20260506155538 | 56 | 0 | 2.0 | 6.0 | 0.00 | 0.00 | 0.00 | 85 | 1020.2 |
| 20260506155038 | 56 | 0 | 1.0 | 3.0 | 0.00 | 0.00 | 0.00 | 85 | 1020.4 |
| 20260506154602 | 56 | 182 | 0.0 | 3.0 | 0.00 | 0.00 | 0.00 | 85 | 1020.8 |
| 20260506154037 | 56 | 180 | 0.0 | 3.0 | 0.00 | 0.00 | 0.00 | 85 | 1021.0 |
| 20260506153541 | 56 | 0 | 1.0 | 3.0 | 0.00 | 0.00 | 0.00 | 85 | 1021.0 |
| 20260506153048 | 56 | 123 | 0.0 | 2.0 | 0.00 | 0.00 | 0.00 | 85 | 1021.1 |
| 20260506152538 | 56 | 0 | 0.0 | 2.0 | 0.00 | 0.00 | 0.00 | 85 | 1021.2 |
| 20260506152037 | 57 | 0 | 0.0 | 2.0 | 0.00 | 0.00 | 0.00 | 85 | 1021.1 |
| 20260506151555 | 57 | 0 | 0.0 | 1.0 | 0.00 | 0.00 | 0.00 | 85 | 1021.1 |